Weather History for KMOT - November, 2013

Change the Weather History Date:

Sunday, November 24, 2013

  Actual Average Record
Temperature  
Mean Temperature 28 °F 24 °F  
Max Temperature 38 °F 32 °F 59 °F (1984)
Min Temperature 17 °F 16 °F -14 °F (1977)
Degree Days  
Heating Degree Days 37 41  
Month to date heating degree days 894 839  
Since 1 July heating degree days 1787 1799  
Moisture  
Dew Point 20 °F    
Average Humidity 63    
Maximum Humidity 70    
Minimum Humidity 56    
Precipitation  
Precipitation T in 0.02 in 0.26 in (1958)
Month to date precipitation 0.15 0.65  
Year to date precipitation 24.81 16.71  
Sea Level Pressure  
Sea Level Pressure 29.97 in    
Wind  
Wind Speed 18 mph (SW)    
Max Wind Speed 29 mph    
Max Gust Speed 36 mph    
Visibility 10 miles    
Events      
T = Trace of Precipitation, MM = Missing Value Source: NWS Daily Summary

Daily Weather History Graph

Daily Weather History Graph

Search for Another Location

Airport or City:

Trip Planner

Search our weather history database for the weather conditions in past years. The results will help you decide how hot, cold, wet, or windy it might be!

Date:

Astronomy

Nov. 24, 2013 Rise Set
Actual Time 8:05 AM CST 4:57 PM CST
Civil Twilight 7:30 AM CST 5:32 PM CST
Nautical Twilight 6:52 AM CST 6:11 PM CST
Astronomical Twilight 6:14 AM CST 6:48 PM CST
Moon 11:41 PM CST (11/24) 12:40 PM CST (11/24)
Length of Visible Light 10h 01m
Length of Day
8h 51m
Waning Gibbous, 60% of the Moon is Illuminated
Nov 24
Waning Gibbous
Nov 25
Last Quarter
Dec 2
New
Dec 9
First Quarter
Dec 17
Full

Hourly Weather History & Observations

Time (CST) Temp. Windchill Dew Point Humidity Pressure Visibility Wind Dir Wind Speed Gust Speed Precip Events Conditions
12:54 AM 21.0 °F 5.7 °F 12.0 °F 68% 30.26 in 10.0 mi South 19.6 mph - N/A   Clear
1:54 AM 21.9 °F 8.2 °F 12.9 °F 68% 30.19 in 10.0 mi SSW 16.1 mph - N/A   Clear
2:54 AM 21.9 °F 10.4 °F 12.9 °F 68% 30.15 in 10.0 mi SSW 11.5 mph 24.2 mph N/A   Clear
3:54 AM 21.9 °F 12.5 °F 12.9 °F 68% 30.11 in 10.0 mi South 8.1 mph - N/A   Clear
4:54 AM 24.1 °F 11.0 °F 14.0 °F 65% 30.07 in 10.0 mi South 16.1 mph - N/A   Clear
5:54 AM 23.0 °F 8.3 °F 14.0 °F 68% 30.01 in 10.0 mi SSW 19.6 mph - N/A   Clear
6:54 AM 25.0 °F 9.9 °F 14.0 °F 63% 29.95 in 10.0 mi SSW 23.0 mph 31.1 mph N/A   Clear
7:54 AM 26.1 °F 11.3 °F 15.1 °F 63% 29.94 in 10.0 mi SSW 23.0 mph 28.8 mph N/A   Clear
8:54 AM 28.0 °F 14.9 °F 17.1 °F 63% 29.93 in 10.0 mi SW 19.6 mph 27.6 mph N/A   Clear
9:54 AM 30.9 °F 20.7 °F 18.0 °F 59% 29.95 in 10.0 mi West 13.8 mph 27.6 mph N/A   Clear
10:54 AM 33.1 °F 23.4 °F 19.0 °F 56% 29.94 in 10.0 mi WSW 13.8 mph - N/A   Clear
11:54 AM 33.1 °F 23.0 °F 21.0 °F 61% 29.90 in 10.0 mi SW 15.0 mph - N/A   Overcast
12:54 PM 34.0 °F 23.4 °F 23.0 °F 64% 29.86 in 10.0 mi SW 17.3 mph - 0.00 in   Overcast
1:54 PM 35.1 °F 24.5 °F 24.1 °F 64% 29.89 in 10.0 mi WSW 18.4 mph - N/A   Clear
2:54 PM 36.0 °F 26.7 °F 24.1 °F 62% 29.88 in 10.0 mi WSW 15.0 mph - N/A   Clear
3:54 PM 36.0 °F 27.5 °F 25.0 °F 64% 29.87 in 10.0 mi SW 12.7 mph - N/A   Clear
4:54 PM 37.0 °F 26.4 °F 25.0 °F 62% 29.88 in 10.0 mi WSW 20.7 mph 27.6 mph N/A   Clear
5:54 PM 37.9 °F 26.6 °F 26.1 °F 62% 29.91 in 10.0 mi West 25.3 mph 31.1 mph N/A   Clear
6:54 PM 37.0 °F 27.0 °F 26.1 °F 65% 29.90 in 10.0 mi West 18.4 mph - N/A   Clear
7:54 PM 36.0 °F 24.2 °F 26.1 °F 67% 29.91 in 10.0 mi West 24.2 mph 32.2 mph N/A   Clear
8:54 PM 36.0 °F 25.0 °F 26.1 °F 67% 29.93 in 10.0 mi West 20.7 mph - N/A   Clear
9:54 PM 35.1 °F 23.5 °F 26.1 °F 70% 29.95 in 10.0 mi West 21.9 mph - N/A   Clear
10:54 PM 33.1 °F 20.3 °F 25.0 °F 72% 29.96 in 10.0 mi West 24.2 mph - N/A   Clear
11:54 PM 32.0 °F 18.9 °F 24.1 °F 73% 29.97 in 9.0 mi WNW 24.2 mph 33.4 mph 0.00 in   Clear